Flag for China Weather past 2 weeks in Tianjin, Tianjin Municipality, China

Now
64 °F

Haze.


Feels Like: 64 °F
Forecast: 55 / 76 °F
Wind: 3 mph from West

Location: Tianjin / Zhangguizhu

Current Time: Sep 19, 2014 at 2:36:07 AM

Latest Report: Sep 19, 2014 at 2:00 AM


Visibility: 2 mi

Pressure: 30.01 "Hg

Humidity: 78%

Dew point: 57 °F

Location of TianjinLocation

Historic Weather in Tianjin — Graph

°F

Tianjin temperature yesterday

Maximum temperature yesterday: 81 °F (at 1:30 PM)
Minimum temperature yesterday: 54 °F (at 5:30 AM)
Average temperature yesterday: 68 °F

Past Weeks' High & Low Weather Summary

 TemperatureHumidityPressure
High90 °F (Sep 4, 1:00 PM)94% (Sep 6, 5:30 AM)30.18 "Hg (Sep 6, 5:30 AM)
Low54 °F (Sep 18, 5:30 AM)13% (Sep 15, 3:30 PM)29.65 "Hg (Sep 4, 1:30 PM)
Average72 °F61%29.93 "Hg
* Reported Sep 4 1:00 AM — Sep 19 1:30 AM, Tianjin, Weather by CustomWeather, © 2014

Note: Actual official high and low records may vary slightly from our data, if they occured in-between our weather recording intervals... More about our weather records

Advertising

Tianjin weather history for previous 24 hours

 ConditionsComfort  
Time TempWeatherWind HumidityBarometerVisibility
1:30 AM
Sep 19
64 °FHaze.6 mph78%30.01 "Hg2 mi
1:00 AM66 °FHaze.6 mph68%30.01 "Hg2 mi
12:30 AM66 °FHaze.6 mph68%30.01 "Hg2 mi
12:00 AM66 °FHaze.3 mph68%30.04 "Hg2 mi
11:30 PM
Sep 18
68 °FHaze.6 mph60%30.04 "Hg3 mi
11:00 PM68 °FHaze.3 mph60%30.04 "Hg3 mi
10:30 PM68 °FHaze.3 mph60%30.04 "Hg3 mi
10:00 PM68 °FHaze.3 mph60%30.07 "Hg3 mi
9:30 PM68 °FClear.3 mph60%30.07 "Hg4 mi
9:00 PM68 °FClear.3 mph56%30.07 "Hg4 mi
8:30 PM68 °FClear.3 mph56%30.07 "Hg4 mi
8:00 PM66 °FHaze.3 mph60%30.07 "Hg3 mi
7:30 PM68 °FClear.3 mph53%30.04 "Hg4 mi
7:00 PM70 °FClear.3 mph43%30.04 "Hg4 mi
6:30 PM72 °FClear.3 mph36%30.04 "Hg10 mi
6:00 PM75 °FSunny.3 mph29%30.04 "Hg10 mi
5:30 PM77 °FSunny.6 mph26%30.04 "Hg10 mi
5:00 PM79 °FSunny.6 mph24%30.04 "Hg10 mi
4:30 PM79 °FSunny.6 mph23%30.04 "Hg10 mi
4:00 PM79 °FSunny.6 mph23%30.04 "Hg10 mi
3:30 PM81 °FPassing clouds.6 mph21%30.04 "HgN/A
3:00 PM81 °FPassing clouds.3 mph20%30.04 "HgN/A
2:30 PM81 °FPassing clouds.6 mph21%30.07 "HgN/A
2:00 PM81 °FSunny.3 mph24%30.07 "Hg10 mi
1:30 PM81 °FSunny.1 mph28%30.09 "Hg10 mi
1:00 PM79 °FClear.3 mph32%30.09 "Hg5 mi
12:30 PM77 °FClear.3 mph34%30.12 "Hg5 mi
12:00 PM77 °FClear.3 mph36%30.12 "Hg5 mi
11:30 AM75 °FClear.3 mph41%30.12 "Hg5 mi
10:30 AM73 °FClear.3 mph47%30.15 "Hg4 mi
10:00 AM72 °FHaze.6 mph53%30.15 "Hg3 mi
9:30 AM70 °FHaze.6 mph60%30.15 "Hg2 mi
9:00 AM66 °FHaze.3 mph68%30.18 "Hg2 mi
8:30 AM64 °FFog.3 mph78%30.15 "Hg2 mi
8:00 AM63 °FFog.3 mph77%30.15 "Hg2 mi
7:30 AM61 °FFog.1 mph88%30.15 "Hg2 mi
7:00 AM57 °FFog.1 mph94%30.15 "Hg2 mi
6:30 AM55 °FFog.1 mph94%30.15 "Hg1 mi
6:00 AM54 °FFog.No wind94%30.15 "Hg1 mi
5:30 AM54 °FFog.1 mph94%30.15 "Hg1 mi
5:00 AM55 °FFog.No wind88%30.15 "Hg1 mi
4:30 AM55 °FFog.No wind88%30.15 "Hg1 mi
4:00 AM55 °FFog.1 mph88%30.15 "Hg1 mi
3:30 AM55 °FFog.1 mph88%30.15 "Hg1 mi
3:00 AM59 °FFog.1 mph82%30.15 "Hg1 mi
2:30 AM59 °FFog.3 mph82%30.15 "Hg1 mi
2:00 AM59 °FFog.3 mph82%30.15 "Hg1 mi
Weather by CustomWeather, © 2014

See weather overviewHow to use our weather pages